Content
SEND FEEDBACK

Daily
Averages
Monthly
Summary
Russia

KRONSHTADT, RUSSIA


Home > Europe > Russia
Elevation: 66 feet     Latitude: 60 00N     Longitude: 029 48E

WEATHER
 
SELECT A DAY
Number of Records: 308,112;   Date Range: 7/1/96 - 12/16/14
 
SHARE

PRINT THIS DATA

[ ← Previous Day ]
WEATHER ALMANAC - JANUARY 23, 2013
[ Next Day → ]
[ °C ]   °F
Weather ElementAverageHighLow
Temperature22.4 °F24.8 °F (12:30 am)19.4 °F (2:00 pm)
Dewpoint19.3 °F24 °F (7:00 am)15.8 °F (1:00 pm)
Humidity87.6 %100 % (4:00 am)76 % (1:00 pm)
Barometer29.74 in29.80 in (1:00 pm)29.71 in (12:30 am)
Wind Speed11.5 mph22.4 mph (8:30 am)
Wind Gust26.8 mph (8:00 am)
Weather ElementAverage
Visibility5.8 mi
Wind DirectionWNW (276.9 °)

Weather ElementTotal
Precipitation---
Heating Degree Days42.9 (Base 65)
Averaged from 55 records on January 23, 2013
WEATHER CONDITIONS BREAKOUT
WIND DIRECTION BREAKOUT
WEATHER BY HOUR - JANUARY 23, 2013
[ °C ]   °F
Local TimeTemperatureDewpointHumidityBarometerVisibilityWind DirectionWind SpeedGust SpeedPrecipitationEventsConditions
12:30 AM24.8 °F21.2 °F86 %29.71 in6.2 miWest (270°)13.4 mphOvercast
1:00 AM24.0 °F21.0 °F85 %29.73 in6.0 miWest (260°)6.7 mphOvercast
1:00 AM24.8 °F21.2 °F86 %29.71 in6.2 miWest (270°)17.9 mphOvercast
1:30 AM24.8 °F23.0 °F93 %29.71 in6.2 miWest (270°)17.9 mphOvercast
2:00 AM24.8 °F23.0 °F93 %29.71 in6.2 miWest (270°)17.9 mphOvercast
2:30 AM24.8 °F23.0 °F93 %29.71 in6.2 miWest (280°)17.9 mphOvercast
3:00 AM24.8 °F23.0 °F93 %29.71 in6.2 miWest (270°)13.4 mphOvercast
3:30 AM23.0 °F19.4 °F86 %29.71 in6.2 miWest (270°)15.7 mphOvercast
4:00 AM20.0 °F21.0 °F100 %29.73 in6.0 miNW (310°)6.7 mphSnowLight Snow
4:00 AM21.2 °F19.4 °F93 %29.71 in6.2 miWNW (300°)11.2 mphOvercast
4:30 AM21.2 °F19.4 °F93 %29.71 in6.2 miWNW (300°)13.4 mphOvercast
5:00 AM21.2 °F19.4 °F93 %29.71 in6.2 miNW (310°)11.2 mphOvercast
5:30 AM21.2 °F19.4 °F93 %29.71 in6.2 miWNW (290°)8.9 mphOvercast
6:00 AM23.0 °F21.2 °F93 %29.71 in6.2 miWNW (290°)13.4 mphOvercast
6:30 AM23.0 °F21.2 °F93 %29.71 in6.2 miWest (270°)13.4 mphOvercast
7:00 AM23.0 °F24.0 °F100 %29.73 in6.0 miWNW (300°)4.5 mphOvercast
7:00 AM24.8 °F23.0 °F93 %29.71 in6.2 miWest (280°)15.7 mphOvercast
7:30 AM24.8 °F23.0 °F93 %29.71 in6.2 miWest (280°)17.9 mphOvercast
8:00 AM24.8 °F23.0 °F93 %29.71 in6.2 miWest (280°)15.7 mph26.8 mphOvercast
8:30 AM23.0 °F21.2 °F93 %29.71 in4.3 miWNW (290°)22.4 mphSnowLight Snow
9:00 AM23.0 °F21.2 °F93 %29.74 in6.2 miWNW (290°)17.9 mphSnowLight Snow
9:30 AM23.0 °F21.2 °F93 %29.74 in6.2 miWNW (290°)15.7 mphOvercast
10:00 AM23.0 °F20.0 °F83 %29.76 in6.0 miNW (310°)4.5 mphMostly Cloudy
10:00 AM23.0 °F19.4 °F86 %29.74 in6.2 miNW (310°)15.7 mphOvercast
10:30 AM23.0 °F19.4 °F86 %29.74 in6.2 miWNW (300°)15.7 mphOvercast
11:00 AM23.0 °F19.4 °F86 %29.77 in6.2 miWNW (300°)13.4 mphOvercast
11:30 AM23.0 °F17.6 °F80 %29.77 in6.2 miWNW (300°)13.4 mphOvercast
12:00 PM23.0 °F17.6 °F80 %29.77 in6.2 miWNW (290°)13.4 mphOvercast
12:30 PM21.2 °F17.6 °F86 %29.77 in6.2 miWNW (290°)13.4 mphOvercast
1:00 PM22.0 °F18.0 °F76 %29.80 in6.0 miWNW (290°)4.5 mphMostly Cloudy
1:00 PM21.2 °F15.8 °F80 %29.77 in6.2 miWNW (290°)13.4 mphOvercast
1:30 PM21.2 °F15.8 °F80 %29.77 in6.2 miWest (280°)11.2 mphOvercast
2:00 PM19.4 °F15.8 °F86 %29.77 in6.2 miWest (270°)11.2 mphScattered Clouds
2:30 PM21.2 °F17.6 °F86 %29.77 in6.2 miWSW (250°)8.9 mphScattered Clouds
3:00 PM21.2 °F15.8 °F80 %29.77 in6.2 miWest (260°)8.9 mphMostly Cloudy
3:30 PM19.4 °F15.8 °F86 %29.77 in6.2 miWest (270°)6.7 mphMostly Cloudy
4:00 PM21.0 °F17.0 °F80 %29.79 in6.0 miWNW (290°)6.7 mphOvercast
4:00 PM21.2 °F17.6 °F86 %29.77 in6.2 miWest (260°)6.7 mphOvercast
4:30 PM21.2 °F17.6 °F86 %29.77 in6.2 miWest (260°)6.7 mphOvercast
5:00 PM21.2 °F17.6 °F86 %29.77 in6.2 miWSW (250°)8.9 mphOvercast
5:30 PM21.2 °F15.8 °F80 %29.77 in6.2 miWSW (240°)8.9 mphOvercast
6:00 PM19.4 °F15.8 °F86 %29.77 in6.2 miWSW (250°)13.4 mphMostly Cloudy
6:30 PM21.2 °F17.6 °F86 %29.77 in6.2 miWest (260°)13.4 mphOvercast
7:00 PM21.0 °F18.0 °F83 %29.77 in6.0 miWSW (240°)6.7 mphOvercast
7:00 PM21.2 °F17.6 °F86 %29.77 in6.2 miWest (270°)8.9 mphOvercast
7:30 PM21.2 °F17.6 °F86 %29.74 in6.2 miWest (270°)8.9 mphOvercast
8:00 PM21.2 °F17.6 °F86 %29.74 in6.2 miWest (260°)11.2 mphOvercast
8:30 PM23.0 °F17.6 °F80 %29.74 in6.2 miWSW (250°)11.2 mphOvercast
9:00 PM23.0 °F19.4 °F86 %29.74 in6.2 miWSW (250°)11.2 mphOvercast
9:30 PM23.0 °F19.4 °F86 %29.71 in3.1 miWest (260°)8.9 mphSnowLight Snow
10:00 PM22.0 °F20.0 °F87 %29.73 in0.0 miWest (270°)4.5 mphSnowHeavy Snow Showers
10:00 PM23.0 °F19.4 °F86 %29.71 in2.5 miWest (260°)8.9 mphSnowLight Snow
10:30 PM23.0 °F21.2 °F93 %29.71 in0.8 miWest (260°)6.7 mphSnowSnow
11:00 PM23.0 °F19.4 °F86 %29.71 inWest (280°)8.9 mphSnowLight Snow
11:30 PM21.2 °F19.4 °F93 %29.71 in3.7 miWNW (300°)11.2 mphSnowLight Snow
Hourly data recorded from ULLI, located miles away from Kronshtadt, Russia







STORIES FROM OUR PARTNERS